Location: Trois-Rivi�res
(46.3500°N, 72.5500°W)
Time: 20:18:41
(UTC-04:00)

Daily predictions for brighter satellites

Satellite Brightness Start Highest point End
(mag) Time Altitude Azimuth Time Altitude Azimuth Time Altitude Azimuth
Cosmos 1140 Rocket 3.5 21:18:00 10° SSW 21:23:10 89° ESE 21:28:22 10° NNE
Cosmos 2082 4.0 21:17:44 10° SSW 21:23:22 77° WNW 21:29:02 10° NNE
USA 32 4.1 21:18:19 10° S 21:23:34 84° E 21:28:51 10° N
USA 245 3.8 21:26:35 10° SE 21:29:45 42° ENE 21:33:43 10° N
Cosmos 2297 Rocket 2.6 21:24:22 10° SSW 21:30:01 73° WNW 21:35:42 10° NNE
Resurs 01 Rocket 4.3 21:27:59 10° SW 21:30:45 16° W 21:33:33 10° NW
Cosmos 1939 Rocket 4.5 21:30:52 10° SSW 21:34:30 33° W 21:38:14 10° NNW
Cosmos 1867 3.9 21:32:34 10° S 21:37:43 45° ESE 21:42:55 10° NE
Cosmos 2100 Rocket 4.1 21:31:27 10° N 21:37:47 78° E 21:44:08 10° SSE
Cosmos 1459 Rocket 4.1 21:31:30 10° N 21:37:51 73° E 21:44:03 10° SSE
Cosmos 2061 Rocket 4.2 21:32:10 10° N 21:38:32 68° E 21:44:55 10° SSE
MetOp-B 4.2 21:36:52 10° SSE 21:42:14 87° ENE 21:47:38 10° NNW
Cosmos 2263 Rocket 4.0 21:40:39 10° ESE 21:42:51 12° E 21:45:03 10° ENE
H-2A R/B 3.9 21:40:52 10° ESE 21:43:51 19° ENE 21:46:49 10° NNE
Cosmos 1340 Rocket 3.6 21:41:54 10° SSW 21:45:51 56° WNW 21:49:53 10° N
Cosmos 1300 3.8 21:43:30 10° N 21:46:57 31° ENE 21:50:00 12° SE
ATLAS 5 CENTAUR R/B 1.7 21:45:49 10° SSW 21:50:28 75° SE 21:55:37 10° NE
Cosmos 2173 Rocket 4.0 21:44:50 10° N 21:51:01 88° ENE 21:57:15 10° S
Cosmos 2123 Rocket 4.5 21:46:27 10° SSE 21:52:12 42° E 21:57:59 10° NNE
SPOT 5 2.9 21:49:20 10° SSE 21:54:08 83° ENE 21:59:16 10° NNW
Lacrosse 5 2.0 21:49:05 10° NW 21:54:10 71° NE 21:58:57 11° ESE
Cosmos 1850 Rocket 4.1 21:49:39 10° SSW 21:54:50 84° WNW 22:00:05 10° NNE
Helios 1B rocket 4.3 21:51:37 10° N 21:55:22 34° WNW 21:59:07 10° SW
Cosmos 2237 Rocket 4.3 21:51:28 10° NW 21:55:38 22° W 21:59:47 10° SSW
Cosmos 1726 2.5 21:52:14 10° N 21:55:50 48° ENE 21:58:49 14° SSE
Cosmos 2084 3.2 21:52:50 10° SSW 21:56:47 63° SE 22:00:34 10° NE
Cosmos 468 Rocket 4.1 21:51:57 10° NNW 21:57:05 65° ENE 22:01:34 13° SSE
USA 234 3.3 21:50:51 10° ENE 21:57:16 55° SE 22:03:38 10° SSW
Cosmos 371 Rocket 3.8 21:57:08 10° NNW 22:01:49 48° ENE 22:05:42 14° SE
Cosmos 1603 3.8 21:56:52 10° NNW 22:02:34 73° ENE 22:07:25 14° SE
CZ-3B R/B 4.4 22:01:02 10° SSW 22:04:27 62° SE 22:17:04 10° NE
H-2A R/B 2.2 22:00:47 12° SSE 22:05:46 76° ENE 22:11:13 10° N
ERS-1 Rocket 4.0 22:03:16 10° S 22:08:02 42° W 22:12:50 10° NNW
Cosmos 1802 Rocket 4.1 22:03:31 10° N 22:09:40 78° W 22:15:48 10° S
Cosmos 1818 4.5 22:06:20 10° NW 22:11:26 41° WSW 22:16:16 11° S
Abrixas rocket 2.2 22:08:49 10° WNW 22:12:05 79° NNE 22:14:57 13° ESE
Cosmos 1725 Rocket 4.1 22:06:14 10° N 22:12:30 68° E 22:17:52 14° SSE
Cosmos 2227 Rocket 4.3 22:08:50 10° WSW 22:13:47 31° NW 22:18:46 10° N
Lacrosse 4 Rocket 4.4 22:13:31 10° W 22:16:51 21° NW 22:20:14 10° N
Cosmos 1674 3.7 22:14:52 10° SSW 22:18:29 44° WNW 22:22:07 10° N
SL-16 R/B 3.6 22:14:22 10° NW 22:19:21 32° WSW 22:24:18 10° SSW
Cosmos 1943 3.6 22:14:18 10° NNW 22:19:50 53° ENE 22:24:10 16° SE
Cosmos 1455 4.1 22:18:01 10° NNE 22:20:49 19° ENE 22:22:49 13° ESE
Cosmos 220 Rocket 4.4 22:20:53 15° S 22:24:19 44° ESE 22:28:31 10° NE
Landsat 7 3.8 22:20:56 16° SSE 22:24:41 80° ENE 22:29:28 10° NNW
ARGOS 3.9 22:20:38 10° S 22:25:54 51° W 22:31:11 10° NNW
Cosmos 1408 Rocket 3.9 22:24:28 10° SSW 22:28:44 64° W 22:33:03 10° N
DMSP B5D2-2 4.0 22:30:19 10° NNE 22:35:34 71° ESE 22:40:08 14° S
Tiangong 1 1.2 22:33:40 10° WSW 22:36:19 38° S 22:36:45 35° SSE
SME Rocket 4.4 22:36:02 16° ESE 22:38:25 29° ENE 22:42:27 10° N
Terra 1.8 22:36:22 20° SSE 22:39:37 79° ENE 22:44:24 10° NNW
Cosmos 2058 3.4 22:38:51 23° SSE 22:41:03 44° E 22:45:05 10° NNE
Cosmos 1703 4.1 22:40:50 24° SE 22:42:32 36° E 22:46:13 10° NNE
Meteor 1-11 4.4 22:40:38 17° S 22:45:04 63° E 22:50:49 10° NNE
Cosmos 1356 3.8 22:44:13 29° SSE 22:45:38 48° E 22:49:01 10° NNE
Cosmos 1500 Rocket 3.5 22:45:14 20° S 22:48:18 75° E 22:52:46 10° NNE
Cosmos 332 Rocket 4.4 22:46:32 10° NNW 22:51:17 51° WSW 22:54:33 19° S
ERBS 2.2 22:50:02 10° NW 22:53:25 72° SW 22:54:40 35° SE
CZ-2C R/B 4.4 22:50:45 10° NE 22:53:55 16° E 22:55:34 14° ESE
Cosmos 1814 Rocket 4.4 22:49:25 10° NNW 22:54:42 59° WSW 22:58:11 21° S
Cosmos 2151 2.9 22:54:01 24° S 22:56:35 77° E 23:00:55 10° NNE
Meteor 1-27 4.3 22:50:49 10° N 22:56:42 90° E 23:00:29 23° S
RESURS DK-1 3.4 22:53:15 10° NW 22:57:06 36° WSW 22:59:21 20° SSW
CARTOSAT-1 3.8 22:55:32 23° S 22:58:07 66° WSW 23:02:26 10° NNW
Cosmos 1486 Rocket 4.0 22:57:03 15° SSW 23:01:29 80° ESE 23:06:48 10° NNE
Spot 4 3.9 23:00:17 26° SSE 23:02:59 71° ENE 23:07:51 10° N
Cosmos 2233 Rocket 4.1 23:00:54 10° N 23:07:08 77° W 23:11:20 22° S
Cosmos 1805 Rocket 4.3 23:05:43 28° SE 23:07:12 37° E 23:11:12 10° NNE
Cosmos 304 Rocket 3.9 23:03:15 10° NNW 23:08:03 64° ENE 23:10:27 28° SE
Cosmos 841 Rocket 3.6 23:03:03 10° NNW 23:08:19 71° WSW 23:11:13 27° S
Cosmos 2228 Rocket 4.3 23:07:03 10° NNW 23:11:16 37° W 23:14:28 16° SSW
Cosmos 1763 Rocket 3.9 23:06:46 10° NNW 23:11:45 52° WSW 23:14:35 24° S
Cosmos 1515 Rocket 4.5 23:09:19 10° NNW 23:13:24 41° W 23:16:02 19° SSW
Cosmos 1633 Rocket 4.4 23:12:49 22° ESE 23:13:56 25° E 23:17:28 10° NE
H-2A R/B 2.6 23:17:20 25° SSW 23:19:33 50° W 23:23:42 10° NNW
COSMOS 2406 4.4 23:16:24 10° NNW 23:21:32 34° NE 23:25:34 15° ESE
Cosmos 1151 Rocket 3.9 23:18:17 10° NNW 23:22:28 43° W 23:24:51 22° SSW
Cosmos 2263 Rocket 2.1 23:21:43 19° SSW 23:25:50 83° ESE 23:31:28 10° NNE
SL-19 R/B 4.4 23:21:16 10° NNE 23:26:33 72° WNW 23:30:50 17° SSW
Cosmos 1626 2.4 23:25:42 30° SSW 23:27:22 63° W 23:31:05 10° N
ATLAS 5 CENTAUR R/B 4.3 23:31:41 10° W 23:35:44 25° NNW 23:40:09 10° NNE
Lacrosse 5 3.2 23:32:37 10° WNW 23:36:45 25° SW 23:38:08 22° SSW
USA 234 3.9 23:33:55 10° NE 23:40:19 59° NNW 23:46:42 10° WSW
Cosmos 2084 Rocket 4.5 23:37:10 10° NNW 23:40:42 35° NE 23:42:45 20° E
Cosmos 1513 Rocket 4.5 23:35:53 10° N 23:42:10 79° E 23:45:17 31° SSE
H-2A R/B 4.4 23:42:31 10° SW 23:45:47 16° W 23:49:07 10° NW
Cosmos 1503 Rocket 4.0 23:43:58 24° SSW 23:47:07 80° WNW 23:52:19 10° NNE
Cosmos 2285 Rocket 4.2 23:41:09 10° NNW 23:47:25 64° WSW 23:50:38 30° S
Abrixas rocket 3.8 23:45:47 10° W 23:47:34 23° WSW 23:47:34 23° WSW
Cosmos 1869 3.2 23:45:21 10° N 23:49:20 88° WSW 23:50:18 50° S
CZ-4C R/B 4.2 23:53:11 33° SSW 23:54:37 46° W 23:58:51 10° NNW
SWAS 4.4 23:53:33 46° S 23:54:39 65° ESE 23:58:57 10° NNE
